#timestamp,LO_Frequency,Hit,StdDev 
1581271215.0,286046999.6,N
1581271215.9,286046999.6,N
1581271235.8,286046997.1,N
1581271255.6,286046998.5,N
1581271275.4,286046998.8,N
1581271295.3,286046998.5,N
1581271315.1,286046997.4,N
1581271335.8,286046995.8,N
1581271355.7,286046995.9,N
1581271375.5,286046993.5,Y
1581271395.4,286046997.9,P
1581271415.2,286046998.0,P
1581271435.0,286046999.2,N
1581271435.9,286046999.2,N
1581271455.8,286046998.2,Y
1581271475.6,286047000.0,P
1581271495.4,286047001.8,N
1581271515.3,286047004.0,P
1581271535.1,286047000.3,N
1581271555.9,286047002.5,N
1581271575.7,286047000.0,N
1581271595.5,286047001.0,N
1581271615.4,286046998.4,N
1581271635.2,286047001.2,N
1581271655.0,286047000.7,N
1581271655.9,286047000.7,N
1581271675.8,286046999.3,N
1581271695.6,286047001.1,N
1581271715.5,286047002.5,N
1581271735.3,286047001.7,N
1581271755.1,286047003.6,N
1581271775.9,286047002.1,N
1581271795.7,286047002.6,N
1581271815.6,286047002.8,N
1581271835.4,286047000.9,N
1581271855.2,286047000.5,N
1581271875.1,286046998.2,N
1581271876.0,286046998.2,N
1581271895.8,286047000.3,N
1581271915.7,286046999.0,N
1581271935.5,286046996.9,N
1581271955.3,286046999.5,N
1581271975.2,286046998.1,N
1581271995.0,286046999.2,N
1581271995.9,286046999.2,N
1581272015.7,286046997.8,N
1581272035.6,286046999.1,N
1581272055.4,286046997.3,N
1581272075.3,286046997.4,N
1581272095.1,286046998.0,N
1581272096.0,286046998.0,N
1581272115.8,286046997.7,N
1581272135.7,286046998.7,N
1581272155.5,286046998.6,N
1581272175.4,286046998.4,N
1581272195.2,286047000.7,N
1581272215.0,286046998.2,N
1581272215.9,286046998.2,N
1581272235.8,286046999.5,N
1581272255.6,286046996.5,N
1581272275.4,286046997.2,N
1581272295.3,286046995.8,N
1581272315.1,286046994.1,Y
1581272335.9,286046995.6,P
1581272355.7,286046996.9,N
1581272375.5,286046999.1,N
1581272395.4,286047000.6,N
1581272415.2,286046996.6,N
1581272435.0,286046997.7,N
1581272435.9,286046997.7,N
1581272455.8,286046999.3,N
1581272475.6,286046998.2,N
1581272495.5,286046997.5,N
1581272515.3,286046996.8,N
1581272535.1,286046997.0,N
1581272555.9,286046997.7,N
1581272575.7,286046996.8,N
1581272595.5,286046996.5,N
1581272615.4,286046998.6,N
1581272635.2,286047001.2,N
1581272655.1,286046999.2,N
1581272656.0,286046999.2,N
1581272675.8,286046998.8,N
1581272695.6,286046999.2,N
1581272715.5,286046996.7,N
1581272735.3,286046997.0,N
1581272755.1,286046997.5,N
1581272775.9,286046996.1,N
1581272795.7,286046995.9,Y
1581272815.6,286046995.7,P
1581272835.4,286046998.0,N
1581272855.2,286046998.0,N
1581272875.1,286046994.9,Y
1581272876.0,286046994.9,P
1581272895.8,286047000.9,N
1581272915.7,286047004.3,N
1581272935.5,286047003.5,N
1581272955.3,286047005.9,N
1581272975.2,286047003.3,N
1581272995.0,286047003.9,N
1581272995.9,286047003.9,N
1581273015.7,286047005.2,N
1581273035.6,286047003.0,N
1581273055.4,286047002.2,N
1581273075.3,286047002.1,N
1581273095.1,286047001.5,N
1581273096.0,286047001.5,N
1581273115.8,286047004.3,N
1581273135.7,286047002.0,N
1581273155.5,286047003.6,N
1581273175.3,286047001.6,N
1581273195.2,286047002.3,N
1581273215.0,286047002.3,N
1581273215.9,286047002.3,N
1581273235.8,286047002.2,N
1581273255.6,286047001.8,N
1581273275.4,286047004.4,N
1581273295.3,286047001.7,N
1581273315.1,286047002.0,N
1581273335.8,286047001.6,N
1581273355.7,286047001.8,N
1581273375.5,286046999.9,N
1581273395.4,286047002.7,N
1581273415.2,286047002.9,N
1581273435.0,286047004.1,Y
1581273435.9,286047004.1,P
1581273455.8,286046999.7,N
1581273475.6,286047000.8,N
1581273495.4,286047000.5,N
1581273515.3,286047000.6,N
1581273535.1,286046998.3,N
1581273555.9,286046999.2,N
1581273575.7,286046999.3,N
1581273595.5,286047001.2,N
1581273615.4,286047001.1,N
1581273635.2,286046998.7,N
1581273655.0,286046999.2,N
1581273655.9,286046999.2,N
1581273675.8,286046996.6,N
1581273695.6,286046998.6,N
1581273715.5,286046998.5,N
1581273735.3,286046996.9,N
1581273755.1,286047001.1,N
1581273775.9,286046998.6,N
1581273795.7,286046998.6,N
1581273815.5,286046998.8,N
1581273835.4,286046999.0,N
1581273855.2,286046997.2,N
1581273875.0,286046998.4,N
1581273875.9,286046998.4,N
1581273895.8,286046999.5,N
1581273915.6,286046997.9,N
1581273935.5,286046998.0,N
1581273955.3,286046999.5,N
1581273975.1,286046999.5,N
1581273995.9,286046997.2,N
1581274015.7,286046995.6,Y
1581274035.6,286046997.6,P
1581274055.4,286046995.2,P
1581274075.2,286046998.0,N
1581274095.1,286046998.7,N
1581274096.0,286046998.7,N
1581274115.8,286047000.6,N
1581274135.6,286046998.1,N
1581274155.5,286046999.3,N
1581274175.3,286047002.2,N
1581274195.2,286046999.8,N
1581274215.9,286047002.7,N
1581274235.7,286047001.5,N
1581274255.6,286047003.9,N
1581274275.4,286047001.9,N
1581274295.2,286047002.3,N
1581274315.1,286047000.2,N
1581274316.0,286047000.2,N
1581274335.8,286046999.0,N
1581274355.6,286046999.4,N
1581274375.5,286047001.0,N
1581274395.3,286047000.1,N
1581274415.2,286047002.3,N
1581274435.9,286046998.9,N
1581274455.7,286047000.7,N
1581274475.6,286047001.1,N
1581274495.4,286046998.3,N
1581274515.2,286046998.8,N
1581274535.1,286046998.3,N
1581274536.0,286046998.3,N
1581274555.8,286047000.8,N
1581274575.7,286047000.9,N
1581274595.5,286047000.3,N
1581274615.3,286046999.6,N
1581274635.2,286046999.6,N
1581274655.9,286046996.5,N
1581274675.7,286046997.1,N
1581274695.6,286046996.5,N
1581274715.4,286046999.6,N
1581274735.2,286046997.8,N
1581274755.1,286046998.0,N
1581274756.0,286046998.0,N
1581274775.8,286046998.0,N
1581274795.7,286046997.6,N
